Torna al catalogo

STARLINK-31434

AttivoComunicazioniVLEO
NORAD 59215·PAYLOAD·🇺🇸 United States

Lanciato Mar 11, 2024 da Vandenberg Space Force Base

Loading…

Prossimi Passaggi (prossime 24 ore)

TLE

AggiornatoSource: CelesTrak SupGP

Epoca: Sep 14, 2026, 13:58 UTC

1 59215C 24046Q   26257.58243056 -.00049027  00000+0 -14497-2 0  2570
2 59215  53.1596 353.3827 0001274  82.2682 302.3325 15.34389433    18

Traccia STARLINK-31434 in tempo reale con AllMySat

Download on the App Store